Вернуться в каталог

STARLINK-36141

АктивенСвязьVLEO
NORAD 67057·PAYLOAD·🇺🇸 United States

Запущен Dec 11, 2025 с Cape Canaveral Space Force Station

Loading…

Ближайшие Пролёты (ближайшие 24 часа)

TLE

СвежийSource: CelesTrak SupGP

Эпоха: Sep 15, 2026, 02:54 UTC

1 67057C 25294AD  26258.12131944 -.00027434  00000+0 -99344-3 0  2586
2 67057  43.0037  48.0806 0001496 268.7555  47.0228 15.27599230    15

Отслеживайте STARLINK-36141 в реальном времени с AllMySat

Download on the App Store